EHI
0 0 0 0 0 0 0 0 0 0 0 0 0 0 0 0 0 0 0 0 0 0 0 0 0 0 0 0 0 0 0 0 0 0 0 0 0 0 0 0 0 0 0 0
0 0 0 0 0 0 0 0 0 0 0 0 0 0 0 0 0 0 0 0 0 0 0 0 0 0 0 0 0 0 0 0 0 0 0 0 0 0 0 0 0 0 0 0
0 0 0 0 0 0 0 0 0 0 0 0 0 0 0 0 0 0 0 0 0 0 0 0 0 0 0 0 0 0 0 0 0 0 0 0 0 0 0 0 0 0 0 0
0 0 0 0 0 0 0 0 0 0 0 0 0 0 0 0 0 0 0 0 0 0 0 0 0 0 0 0 0 0 0 0 0 0 0 0 0 0 0 0 0 0 0 0
0 0 0 0 0 0 0 0 0 0 0 0 0 0 0 0 0 0 0 0 0 0 0 0 0 0 0 0 0 0 0 0 0 0 0 0 0 0 0 0 0 0 0 0
0 0 0 0 0 0 0 0 0 0 0 0 0 0 0 0 0 0 0 0 0 0 0 0 0 0 0 0 0 0 0 0 0 0 0 0 0 0 0 0 0 0 0 0
0 0 0 0 0 0 0 0 0 0 0 0 0 0 0 0 0 0 0 0 0 0 0 0 0 0 0 0 0 0 0 0 0 0 0 0 0 0 0 0 0 0 0 0
0 0 0 0 0 0 0 0 0 0 0 0 0 0 0 0 0 0 0 0 0 0 0 0 0 0 0 0 0 0 0 0 0 0 0 0 0 0 0 0 0 0 0 0
0 0 0 0 0 0 0 0 0 0 0 0 0 0 0 0 0 0 0 0 0 0 0 0 0 0 0 0 0 0 0 0 0 0 0 0 0 0 0 0 0 0 0 0
0 0 0 0 0 0 0 0 0 0 0 0 0 0 0 0 0 0 0 0 0 0 0 0 0 0 0 0 0 0 0 0 0 0 0 0 0 0 0 0 0 0 0 0
0 0 0 0 0 0 0 0 0 0 0 0 0 0 0 0 0 0 0 0 0 0 0 0 0 0 0 0 0 0 0 0 0 0 0 0 0 0 0 0 0 0 0 0
0 0 0 0 0 0 0 0 0 0 0 0 0 0 0 0 0 0 0 0 0 0 0 0 0 0 0 0 0 0 0 0 0 0 0 0 0 0 0 0 0 0 0 0
0 0 0 0 0 0 0 0 0 0 0 0 0 0 0 0 0 0 0 0 0 0 0 0 0 0 0 0 0 0 0 0 0 0 0 0 0 0 0 0 0 0 0 0
0 0 0 0 0 0 0 0 0 0 0 0 0 0 0 0 0 0 0 0 0 0 0 0 0 0 0 0 0 0 0 0 0 0 0 0 0 0 0 0 0 0 0 0
0 0 0 0 0 0 0 0 0 0 0 0 0 0 0 0 0 0 0 0 0 0 0 0 0 0 0 0 0 0 0 0 0 0 0 0 0 0 0 0 0 0 0 0
0 0 0 0 0 0 0 0 0 0 0 0 0 0 0 0 0 0 0 0 0 0 0 0 0 0 0 0 0 0 0 0 0 0 0 0 0 0 0 0 0 0 0 0
0 0 0 0 0 0 0 0 0 0 0 0 0 0 0 0 0 0 0 0 0 0 0 0 0 0 0 0 0 0 0 0 0 0 0 0 0 0 0 0 0 0 0 0
0 0 0 0 0 0 0 0 0 0 0 0 0 0 0 0 0 0 0 0 0 0 0 0 0 0 0 0 0 0 0 0 0 0 0 0 0 0 0 0 0 0 0 0
0 0 0 0 0 0 0 0 0 0 0 0 0 0 0 0 0 0 0 0 0 0 0 0 0 0 0 0 0 0 0 0 0 0 0 0 0 0 0 0 0 0 0 0
0 0 0 0 0 0 0 0 0 0 0 0 0 0 0 0 0 0 0 0 0 0 0 0 0 0 0 0 0 0 0 0 0 0 0 0 0 0 0 0 0 0 0 0
0 0 0 0 0 0 0 0 0 0 0 0 0 0 0 0 0 0 0 0 0 0 0 0 0 0 0 0 0 0 0 0 0 0 0 0 0 0 0 0 0 0 0 0
0 0 0 0 0 0 0 0 0 0 0 0 0 0 0 0 0 0 0 0 0 0 0 0 0 0 0 0 0 0 0 0 0 0 0 0 0 0 0 0 0 0 0 0
0 0 0 0 0 0 0 0 0 0 0 0 0 0 0 0 0 0 0 0 0 0 0 0 0 0 0 0 0 0 0 0 0 0 0 0 0 0 0 0 0 0 0 0
0 0 0 0 0 0 0 0 0 0 0 0 0 0 0 0 0 0 0 0 0 0 0 0 0 0 0 0 0 0 0 0 0 0 0 0 0 0 0 0 0 0 0 0
0 0 0 0 0 0 0 0 0 0 0 0 0 0 0 0 0 0 0 0 0 0 0 0 0 0 0 0 0 0 0 0 0 0 0 0 0 0 0 0 0 0 0 0
0 0 0 0 0 0 0 0 0 0 0 0 0 0 0 0 0 0 0 0 0 0 0 0 0 0 0 0 0 0 0 0 0 0 0 0 0 0 0 0 0 0 0 0
Wind_Speed
2 4 2 5 6 3 2 2 3 4 1 1 5 9 10 5 4 5 5 5 5 5 4 2 1 1 1 1 1 1 2 1 2 1 1 1 1 1 2 2 2 2 2 2
3 2 5 2 2 2 2 2 4 4 1 2 5 9 7 5 4 5 6 5 5 4 3 2 1 1 0 0 0 1 1 1 2 1 1 1 2 1 1 1 2 2 2 2
5 3 2 3 2 3 4 5 5 4 3 2 4 8 4 3 2 2 3 4 4 4 4 3 1 1 1 1 1 1 1 2 1 1 2 2 2 2 1 1 1 1 2 2
3 3 1 2 3 5 6 4 3 2 1 3 1 7 6 4 4 4 4 4 4 4 3 3 2 2 2 2 1 1 1 1 1 2 3 3 2 1 1 0 0 1 1 1
3 2 2 3 4 5 4 1 2 2 2 3 1 3 9 2 4 5 5 5 5 3 3 3 3 3 2 1 1 1 1 2 2 2 2 2 1 1 1 1 1 1 1 1
3 2 2 4 2 3 2 2 2 2 2 4 4 4 10 4 6 5 4 4 4 3 2 2 1 1 0 1 1 1 2 1 1 2 2 2 2 2 2 1 1 0 1 1
4 3 1 1 1 1 2 3 2 4 2 7 2 4 11 6 4 4 5 5 4 3 2 2 1 1 1 1 1 1 2 1 1 1 2 1 2 2 2 1 1 0 0 1
3 5 4 2 4 4 4 5 6 5 5 5 2 8 9 4 3 3 4 4 3 2 2 2 2 2 2 2 1 1 1 1 1 1 1 1 1 1 1 1 1 1 0 1
5 5 0 1 1 5 5 4 3 4 1 3 6 7 9 2 2 2 2 2 3 3 2 2 2 2 2 2 2 2 2 1 1 1 1 1 1 1 1 1 1 0 0 0
4 5 3 1 1 0 3 5 4 4 3 5 7 6 7 5 5 3 2 3 3 2 2 2 2 2 2 2 2 2 2 2 2 1 1 1 1 1 1 1 1 0 0 0
2 3 3 1 5 7 4 4 4 4 4 5 5 9 6 7 6 5 5 4 3 3 2 2 2 2 2 1 2 2 2 2 2 2 1 1 1 1 1 1 1 0 0 0
2 2 4 6 2 1 5 7 8 6 6 5 5 10 3 5 5 5 5 4 3 3 3 2 2 1 1 2 2 2 2 2 2 2 2 2 1 1 1 1 1 1 1 1
4 4 1 4 2 0 2 3 5 4 4 5 6 11 2 1 2 4 4 4 4 3 3 2 2 2 2 3 3 3 3 3 2 2 2 2 2 2 1 1 1 1 1 1
3 4 7 9 6 4 5 5 5 6 6 8 12 13 8 6 6 6 5 5 4 4 4 3 3 3 3 3 3 3 3 3 2 2 2 2 2 2 2 2 1 1 1 1
3 4 6 7 4 2 6 8 9 11 11 11 12 13 15 9 8 6 5 5 4 5 5 4 4 4 3 3 3 3 3 3 2 3 3 3 2 2 2 1 1 1 1 1
3 4 2 5 3 4 8 10 12 13 12 13 13 17 13 8 4 5 6 6 7 7 6 6 5 5 5 4 4 3 3 3 3 4 3 2 2 2 2 2 1 1 1 1
5 5 3 6 3 3 11 12 14 10 10 10 15 17 7 5 6 7 7 7 8 8 7 6 6 6 5 4 4 4 4 3 3 3 3 2 2 2 2 2 2 2 2 2
6 5 3 2 0 10 10 5 10 11 12 12 11 9 6 8 6 6 6 8 8 8 7 7 5 5 3 3 3 3 2 3 3 3 3 3 3 3 2 3 3 3 2 2
6 7 4 3 6 11 9 4 7 8 10 11 13 12 8 4 3 6 6 7 8 7 6 5 4 3 3 3 3 2 2 3 3 4 4 3 3 3 3 4 4 3 2 2
1 4 4 4 5 10 8 4 4 4 8 6 9 10 6 2 3 8 3 4 5 4 3 3 2 2 3 3 2 3 3 4 5 5 4 3 3 4 4 4 3 2 2 3
3 3 6 7 8 12 7 3 6 5 8 3 6 7 6 7 8 5 2 3 4 3 3 2 2 3 3 3 3 4 4 5 5 3 2 3 3 4 4 3 2 2 2 2
10 8 8 7 7 13 5 7 10 9 2 2 3 4 5 7 6 5 4 4 3 3 2 3 3 3 3 3 4 4 5 4 2 2 3 3 3 3 3 3 2 2 3 3
10 10 8 12 11 4 7 8 6 3 3 4 4 4 5 6 6 6 5 4 4 4 3 3 3 3 2 3 4 5 4 2 2 2 3 3 3 3 3 3 3 3 3 3
6 3 4 7 10 6 7 6 5 4 5 5 4 4 4 6 6 6 5 4 3 3 3 2 3 3 3 2 3 4 3 2 3 3 3 3 3 3 3 3 3 4 4 4
7 6 5 9 9 6 7 8 8 6 4 4 4 4 5 5 6 5 5 4 4 3 2 2 3 4 4 3 3 3 3 3 3 3 3 3 3 3 3 3 3 4 4 5
6 8 9 11 7 6 7 5 5 6 6 5 5 5 4 4 5 4 4 3 3 3 2 2 3 3 3 3 3 3 3 4 4 3 3 3 3 3 3 2 2 4 5 6
Wind_Direction
51 82 197 225 212 190 163 194 252 259 248 208 250 268 281 279 252 253 254 249 250 256 274 292 297 327 37 46 89 120 108 101 99 112 144 145 125 64 53 49 48 62 72 88
58 253 244 218 199 199 205 247 267 287 296 229 275 278 277 267 250 241 243 246 249 259 282 293 317 3 32 247 167 129 140 141 145 152 176 161 150 129 104 51 49 58 66 69
181 240 227 174 176 207 231 227 239 258 322 325 315 298 280 280 265 279 261 250 249 237 244 257 257 256 253 249 226 176 167 158 144 105 96 83 76 68 59 36 33 43 74 76
232 266 156 169 206 198 244 226 223 236 301 300 23 296 285 278 291 285 269 259 251 249 243 235 228 240 232 241 238 149 138 128 126 126 123 121 127 148 204 203 54 45 80 90
242 220 186 209 225 194 223 193 190 204 205 284 266 254 285 304 284 279 269 258 253 252 246 245 236 227 219 204 185 153 121 107 112 123 131 139 122 133 79 63 73 60 49 58
245 224 207 220 224 191 175 86 74 68 91 274 233 206 278 244 238 258 260 261 254 254 247 251 263 238 152 119 120 117 120 114 113 123 122 134 133 116 104 79 101 57 34 34
283 254 243 161 129 119 119 112 19 349 340 254 218 212 255 253 238 228 245 258 257 248 242 245 241 222 205 176 161 141 136 143 141 139 133 144 157 154 162 167 162 116 12 348
235 266 223 195 187 189 193 166 172 207 237 280 269 236 255 257 266 256 252 260 273 262 242 238 229 215 210 198 184 175 175 181 174 160 151 131 138 152 175 156 128 175 224 286
207 252 336 188 190 162 163 194 188 143 89 283 267 277 296 260 282 274 271 275 277 271 262 247 238 219 209 202 201 198 196 196 192 178 151 138 141 133 139 123 105 145 12 343
193 254 272 279 87 313 172 153 126 153 193 257 279 264 251 244 239 250 257 256 269 284 283 269 231 221 215 209 204 185 185 195 197 185 189 190 175 154 128 123 133 183 212 88
201 215 282 223 201 199 164 169 164 161 177 192 259 264 228 217 216 226 240 246 245 252 258 257 248 225 210 194 189 191 193 185 183 186 187 177 180 163 139 150 189 206 197 145
185 174 249 247 230 216 198 194 174 182 217 207 230 264 251 215 221 221 238 245 238 241 248 250 249 238 215 211 209 205 205 201 203 197 187 186 171 161 162 187 207 191 209 194
156 156 274 318 307 258 238 222 201 177 164 192 215 259 282 258 253 237 235 252 256 256 256 251 242 238 230 223 218 215 215 216 211 191 183 183 180 182 197 211 219 211 214 214
159 189 206 222 235 189 214 216 187 173 203 222 229 250 267 265 265 268 259 255 255 249 244 239 244 243 238 229 219 216 222 215 206 191 192 199 204 205 208 205 206 217 214 215
151 221 240 252 263 219 228 223 201 208 216 224 243 244 256 249 247 253 257 261 261 259 251 243 241 243 239 235 227 215 216 214 204 198 206 215 212 205 199 198 205 214 215 228
167 204 241 268 256 253 263 242 223 227 231 239 258 265 258 258 253 252 253 254 256 257 253 247 242 238 237 235 230 223 221 216 203 205 214 213 199 204 206 208 205 206 221 230
178 170 197 260 276 306 262 226 210 212 211 207 234 249 257 257 246 241 240 243 243 250 254 249 238 233 232 229 220 220 222 209 204 212 215 205 202 212 217 215 204 207 217 223
182 179 192 235 164 240 245 190 198 217 233 221 235 252 245 243 253 247 230 231 243 246 247 245 236 230 227 219 211 217 209 200 207 214 217 213 210 219 221 213 214 215 212 214
199 179 176 184 235 268 282 220 184 201 253 226 229 245 255 273 308 279 242 221 230 236 237 236 229 218 214 211 199 195 209 206 211 219 222 220 213 217 218 221 220 218 211 218
150 170 170 188 217 243 250 200 171 142 269 237 211 231 238 173 257 270 263 231 240 242 230 221 208 193 209 215 190 198 213 213 223 227 227 223 216 215 221 227 228 222 214 220
164 192 201 211 234 257 247 174 133 184 247 235 203 215 202 201 228 258 273 251 238 233 226 204 190 202 216 202 185 215 223 229 234 231 224 223 219 220 221 226 225 207 212 208
182 185 197 184 217 249 193 149 187 219 254 224 216 208 211 235 255 267 265 257 246 239 226 200 203 229 228 200 189 217 231 235 227 211 213 217 218 221 215 205 210 197 192 202
204 197 193 200 220 248 177 200 218 209 234 238 226 231 226 244 257 264 263 256 245 239 235 214 204 232 246 217 197 219 236 219 202 207 217 217 216 216 211 203 203 197 194 204
238 216 208 246 257 253 244 255 253 231 233 240 239 245 232 241 254 260 259 254 247 246 237 218 203 225 251 241 220 224 232 203 190 208 221 215 208 213 207 207 203 202 203 209
222 191 217 250 264 280 257 236 240 239 240 254 259 249 241 245 256 250 253 252 244 244 238 219 218 233 247 249 245 234 218 191 196 211 217 216 212 209 210 211 213 217 220 217
207 196 205 236 235 228 253 250 237 239 248 252 257 266 261 243 247 250 248 247 242 242 238 232 234 237 246 246 253 244 210 187 189 210 215 212 208 202 201 208 247 251 248 252